Weather in Surkhet

Nepal     28°36′23″N   81°36′51″E
temp.,
°C
wind,
m/s
gust,
m/s
humid.,
%
clouds,
%
prec.,
mm/h
press.,
hPa
HPBL,
m
24 may, tue
tue2423:45+22ne2266100 3.4 100433
02:45+21ne226517 0.6 100431
05:45+20ne227152 2.6 100533
08:45+26wsw1151100 1.8 1007448
11:45+28n1142100 1.9 1007582
14:45+32w223164 0.0 10041864
17:45+31nw32321 0.0 10031098
20:45+25nne22470 0.0 100430
25 may, wed
wed2523:45+24ne22512 0.0 100635
02:45+23ne33523 0.0 100544
05:45+22ne225217 0.0 100532
08:45+32sse01295 0.0 1006747
11:45+35sw452140 0.0 10053187
14:45+36w351644 0.0 10023624
17:45+34sw341811 0.0 10011864
20:45+28e233415 0.0 100474
26 may, thu
thu2623:45+25ene11386 0.0 100412
02:45+24ne223814 0.0 100328
05:45+24ne223819 0.0 100425
08:45+32sw11241 0.0 1005833
11:45+36sw231916 0.0 10032739
14:45+38wsw441718 0.0 10004010
17:45+36nw131854 0.0 9981769
20:45+30ne222665 0.0 100021
27 may, fri
fri2723:45+28ne223119 0.0 99922
02:45+27ene223386 0.0 99916
05:45+26ne223577 0.0 100025
08:45+34sse232250 0.0 10011085
11:45+37ssw331980 0.0 10002885
14:45+36ssw1220100 0.0 9982952
17:45+33ene232757 0.0 997126
20:45+29ne323319 0.0 99839
28 may, sat
sat2823:45+27ne223711 0.0 99827
02:45+26ene223998 0.0 99828
05:45+28ne223552 0.0 99932
08:45+35sse122437 0.0 10001180
11:45+37sw332243 0.0 10003098
14:45+36se132385 0.0 9972696
17:45+32e223411 0.2 99666
20:45+28w354883 0.3 1001152